Regional Weather Roundup
Issued by NWS

Home | Current Version | Previous Version | Graphics & Text | Print | Product List | Glossary On
Versions: 1 2 3 4 5 6 7 8 9 10 11 12 13 14 15 16 17 18 19 20 21 22 23 24 25 26 27 28 29 30 31 32 33 34 35 36 37 38 39 40 41 42 43 44 45 46 47 48 49 50
000
ASUS45 KTFX 301904
RWRMT
MONTANA HOURLY WEATHER ROUNDUP
NATIONAL WEATHER SERVICE GREAT FALLS MT
104 PM MDT TUE SEP 30 2014

NOTE: "FAIR" INDICATES FEW OR NO CLOUDS BELOW 12000 FEET WITH NO
SIGNIFICANT WEATHER AND/OR OBSTRUCTIONS TO VISIBILITY.

* THESE STATIONS ARE NOT UNDER NWS QUALITY CONTROL. THEY DO NOT
   REPORT WEATHER SUCH AS PRECIPITATION OR FOG.

MTZ001>007-043-302000-
WEST OF THE DIVIDE
CITY           SKY/WX    TMP DP  RH WIND       PRES   REMARKS
KALISPELL      LGT RAIN  54  48  80 S5        29.82R
MISSOULA       PTSUNNY   57  39  51 W18G25    29.88S
BUTTE          CLOUDY    52  37  57 NW12      29.86S
MULLAN PASS    FOG       36  36 100 W8        29.93R VSB M1/4 WCI  30
* ESSEX        N/A       50  48  93 N/A        N/A
* LINCOLN      N/A       51  44  77 SW6G14     N/A
* LOOKOUT PASS N/A       42  38  86 E11G17     N/A
* POLSON       N/A       51  45  80 SE3G11     N/A
* RONAN APT    PTSUNNY   54  43  67 SW10G18    N/A
* SEELEY LAKE  N/A       51  41  69 W7G17      N/A
* THOMP F APT  PTSUNNY   42  41  96 N/A        N/A
* YAAK HILL    N/A       57  39  51 SE5G14     N/A
$$

MTZ008-052>055-302000-
SOUTHWEST MONTANA
CITY           SKY/WX    TMP DP  RH WIND       PRES   REMARKS
BOZEMAN        CLOUDY    54  45  72 CALM      29.83R
DILLON         CLOUDY    52  43  72 SW14      29.85S
W YELLOWSTONE  CLOUDY    45 N/A N/A W13       29.90S
* THREE FORKS  CLOUDY    55  25  31 N/A        N/A
* BOULDER HILL N/A       51  32  48 E4G9       N/A
* MONIDA PASS  N/A       42  42 100 SE8        N/A
* RAYNOLDS PAS N/A       45  26  47 SE9        N/A
* WHITEHALL    N/A       60  43  54 W8G17      N/A
* WISE RIVER   N/A       51  35  54 W15G22     N/A
$$

MTZ009>010-012-014-046-048-049-054-302000-
EAST SLOPES AND CENTRAL MONTANA
CITY           SKY/WX    TMP DP  RH WIND       PRES   REMARKS
CUT BANK       LGT RAIN  54  46  74 NW13G21   29.72R
GREAT FALLS    CLOUDY    57  45  64 SW16      29.71R
HELENA         CLOUDY    57  41  55 NW13      29.80S
MALMSTROM AFB  PTSUNNY   61  46  58 SW20G30   29.72R
* CONRAD       PTCLDY    66  45  47 W17G30     N/A
* DEARBORN     N/A       60  41  50 S16G25     N/A
* EAST GLACIER N/A       49  40  71 W13G25     N/A
* MONARCH      N/A       51  36  57 W11G18     N/A
* PENDROY      N/A       57  36  46 W21G33     N/A
* ROGERS PASS  N/A       45  41  86 SE18G24    N/A
* SAINT MARY   N/A       50  42  74 NW5G12     N/A
* SWEET GRASS  N/A       54  48  80 W20G29     N/A
$$

MTZ011-013-016-021-035-040-045-047-050-051-302000-
NORTH CENTRAL MONTANA
CITY           SKY/WX    TMP DP  RH WIND       PRES   REMARKS
HAVRE          CLOUDY    66  45  47 W18G24    29.61R
LEWISTOWN      CLOUDY    55  46  72 NW3       29.72S
* CHESTER      N/A       64  42  45 NW15G25    N/A
* DENTON       N/A       57  48  72 N4G10      N/A
* GEYSER       N/A       61  40  46 W19G26     N/A
* JUDITH GAP   N/A       53  44  72 SE4        N/A
* LOMA         N/A       66  44  45 W12G20     N/A
$$

MTZ017>020-022>027-061-062-302000-
NORTHEAST MONTANA
CITY           SKY/WX    TMP DP  RH WIND       PRES   REMARKS
GLASGOW        CLOUDY    61  52  72 CALM      29.60S
GLENDIVE       CLOUDY    55  54  96 NW10      29.58F
JORDAN         CLOUDY    64  48  56 N8        29.61S
SIDNEY         CLOUDY    55  54  96 E3        29.60F
WOLF POINT     CLOUDY    59  54  84 W5        29.59F
* BEAVER HILL  N/A       56  53  90 NW1        N/A
* CIRCLE       N/A       60  54  81 N/A        N/A
* LINDSAY DVD  N/A       54  52  93 NW8        N/A
* NAVAJO       N/A       55  53  93 S6         N/A
$$

MTZ028>042-056>058-302000-
SOUTHCENTRAL AND SOUTHEAST MONTANA
CITY           SKY/WX    TMP DP  RH WIND       PRES   REMARKS
BAKER          CLOUDY    55  54  96 NW8       29.56F
BILLINGS       CLOUDY    61  43  52 NW18G26   29.70S
LIVINGSTON     CLOUDY    57  43  60 W18       29.78S
MILES CITY     CLOUDY    57  50  78 W10       29.60F
* LAUREL APT   PTSUNNY   61  37  41 W13        N/A
* ROUNDUP APT  CLOUDY    57  45  64 SW8        N/A
* ALZADA       N/A       53  51  93 W17        N/A
* HYSHAM       N/A       58  43  58 W4         N/A
* LAME DEER    N/A       54  45  72 W9G16      N/A
* REED POINT   N/A       62  38  41 W22G32     N/A
* ROSCOE HILL  N/A       58  27  31 SW4G13     N/A
$$

REGIONAL REPORTS...DAKOTAS
CITY           SKY/WX    TMP DP  RH WIND       PRES   REMARKS
WILLISTON      CLOUDY    55  54  96 E8        29.59F
DICKINSON      FOG       54  52  93 E14       29.53F VSB 1 3/4
BEACH          N/A       54  54 100 NE5       29.57F
CROSBY         FOG       52  52 100 E10       29.61F VSB 3
TIOGA          PTSUNNY   50  50 100 SE9       29.64F
WATFORD CITY   CLOUDY    54  54 100 E12       29.57F
BISMARCK       CLOUDY    55  54  96 E15       29.58F
GRAND FORKS    PTSUNNY   57  45  64 SE18      29.79F
FARGO          CLOUDY    59  45  60 SE16G24   29.79F
BUFFALO SD     CLOUDY    54  52  93 N12       29.45F
RAPID CITY     CLOUDY    61  55  81 NW14G20   29.50R
$$

REGIONAL REPORTS...WYOMING/IDAHO/WASHINGTON
CITY           SKY/WX    TMP DP  RH WIND       PRES   REMARKS
GILLETTE       CLOUDY    55  45  69 NW23G29   29.66F
SHERIDAN       CLOUDY    63  39  41 N23       29.68F
CODY           CLOUDY    57  39  51 SW7       29.76R
YELLOWSTONE LA CLOUDY    43  36  76 W8G18     29.93S
SALMON         CLOUDY    52  46  80 CALM      29.89R
MULLAN PASS    FOG       36  36 100 W8        29.93S VSB M1/4 WCI  30
SAND POINT     PTSUNNY   59  45  60 SW7       29.88S
SPOKANE        PTCLDY    63  36  37 SW15      29.89F

$$



USA.gov is the U.S. government's official web portal to all federal, state and local government web resources and services.